TimeCDT,TemperatureF,Dew PointF,Humidity,Sea Level PressureIn,VisibilityMPH,Wind Direction,Wind SpeedMPH,Gust SpeedMPH,PrecipitationIn,Events,Conditions,WindDirDegrees,DateUTC
12:53 AM,39.9,34.0,79,30.26,10.0,Calm,Calm,-,N/A,,Clear,0,2013-10-24 05:53:00
1:53 AM,35.1,30.9,85,30.28,10.0,Calm,Calm,-,N/A,,Clear,0,2013-10-24 06:53:00
2:53 AM,34.0,30.9,89,30.29,10.0,SW,4.6,-,N/A,,Clear,230,2013-10-24 07:53:00
3:53 AM,35.1,32.0,89,30.29,10.0,Calm,Calm,-,N/A,,Clear,0,2013-10-24 08:53:00
4:53 AM,34.0,30.9,89,30.31,10.0,Calm,Calm,-,N/A,,Overcast,0,2013-10-24 09:53:00
5:53 AM,36.0,33.1,89,30.32,10.0,Calm,Calm,-,N/A,,Overcast,0,2013-10-24 10:53:00
6:53 AM,36.0,32.0,86,30.34,10.0,SSW,3.5,-,N/A,,Overcast,210,2013-10-24 11:53:00
7:53 AM,36.0,32.0,86,30.37,10.0,Calm,Calm,-,N/A,,Overcast,0,2013-10-24 12:53:00
8:53 AM,37.0,33.1,86,30.40,10.0,WSW,3.5,-,N/A,,Overcast,240,2013-10-24 13:53:00
9:53 AM,39.0,34.0,82,30.43,10.0,Calm,Calm,-,N/A,,Overcast,0,2013-10-24 14:53:00
10:50 AM,42.8,33.8,70,30.39,10.0,ESE,8.1,-,N/A,,Overcast,110,2013-10-24 15:50:00
10:53 AM,42.1,35.1,76,30.43,10.0,ESE,6.9,-,N/A,,Overcast,120,2013-10-24 15:53:00
11:53 AM,43.0,35.1,74,30.44,10.0,SSE,6.9,-,N/A,,Overcast,160,2013-10-24 16:53:00
12:53 PM,45.0,35.1,68,30.43,10.0,SE,6.9,-,N/A,,Overcast,140,2013-10-24 17:53:00
1:53 PM,46.0,36.0,68,30.42,10.0,South,6.9,-,N/A,,Overcast,180,2013-10-24 18:53:00
2:53 PM,46.9,36.0,66,30.39,10.0,SSW,6.9,-,N/A,,Overcast,200,2013-10-24 19:53:00
3:53 PM,48.0,36.0,63,30.38,10.0,South,5.8,-,N/A,,Overcast,180,2013-10-24 20:53:00
4:53 PM,48.9,36.0,61,30.36,10.0,South,4.6,-,N/A,,Overcast,180,2013-10-24 21:53:00
5:53 PM,48.0,36.0,63,30.36,10.0,South,6.9,-,N/A,,Overcast,180,2013-10-24 22:53:00
6:53 PM,46.9,36.0,66,30.37,10.0,SSE,4.6,-,N/A,,Overcast,160,2013-10-24 23:53:00
7:48 PM,44.6,35.6,71,30.33,10.0,ESE,6.9,-,N/A,,Scattered Clouds,110,2013-10-25 00:48:00
7:53 PM,44.1,35.1,71,30.38,10.0,ESE,5.8,-,N/A,,Partly Cloudy,110,2013-10-25 00:53:00
8:53 PM,42.1,35.1,76,30.38,10.0,SE,5.8,-,N/A,,Clear,140,2013-10-25 01:53:00
9:53 PM,39.9,33.1,77,30.40,10.0,SSE,6.9,-,N/A,,Clear,150,2013-10-25 02:53:00
10:53 PM,37.9,32.0,79,30.40,10.0,South,4.6,-,N/A,,Clear,170,2013-10-25 03:53:00
11:53 PM,37.0,30.0,76,30.40,10.0,SSE,4.6,-,N/A,,Clear,160,2013-10-25 04:53:00